DELTA 1 DEB, 12542

Orbit data source: Space-Track

DELTA 1 DEB, 12542 is space debris in SSO originally from a launch on Thu, 29 Jul 1976 UTC launched from the Air Force Western Test Range (AFWTR). Debris objects in space refer to the collection of defunct objects orbiting the Earth. Examples of debris include non-operational satellites, rocket bodies, and fragments generated from explosions, collisions, or faulty payload assembly.

Loading next visibility...
Identifier
12542, 1976-077DX
Orbit
SSO
Country
Flag of USUS
Related business
Manufacturer
Unknown
Mission
Spacecraft
Bus & Motor
Unknown
Mass
Unknown
Launch date (UTC)
1976-07-29 (50 years ago)
Launch vehicle
Unknown
Launch site
Air Force Western Test Range (AFWTR)
Object type
Payload
Rocket body
Debris
Shape & HBR
Unknown shape, 0.1 m
Radar Cross Section
Medium (>0.1 m² and <1 m²)

Expand to show TLE details & history
Last TLE update: 1 day ago

TLE from 1 day ago
0 DELTA 1 DEB
1 12542U 76077DX  26254.91239606  .00000053  00000-0  62268-3 0  9991
2 12542 101.9594 239.2681 0060356 117.9021 299.1257 12.52410383 88940
Epoch: 2026-09-11T21:53Z
TLE epoch observation values (Epoch: 2026-09-11T21:53:51.019Z)
Latitude
54.68691°
Longitude
-97.43335°
Altitude
1,440.452 km
Speed
7.157 km/s
True Right ascension
14h 47m 49s
True Declination
54° 32' 19"
Sunlit
Object was in daylight at epoch
Visualization orbit readout
Latitude
Unknown
Longitude
Unknown
Altitude
Unknown
Speed
Unknown
Apparent Right ascension
Unknown
Apparent Declination
Unknown
Sunlit
N/A
Visualization observer readout
Local Sidereal Time
17:33:58
Azimuth
Unknown
Elevation
Unknown
Doppler factor
Unknown
Orbital elements
Apogee altitude
1,499.245 km
Perigee altitude
1,404.726 km
Semi-major axis
7,830.122 km
Eccentricity
0.00604
Inclination
101.9594°
RAAN
239.2681°
Arg. of periapsis
117.9021°
True anomaly
298.51931°
Mean anomaly
299.1257°
Eccentric anomaly
298.82273°
Mean motion
3.13249 °/min
Orbital period
114.92 mins
BSTAR
0.00062268
Loading maneuver chart data...
Computing Atmospheric mass density...
Loading historical data...
Loading historical data...
Loading historical data...
Loading historical data...
Loading historical data...
Loading historical data...
Loading historical data...

Documentation

Showing up to 5 results
|